Find Starlink 4141

NORAD ID: 53138 Int'l Des: 2022-083 Owner: SPXS Country: US Constellation: starlink operational
LEOCIRCULAR

現在のビュー

3D地球を読み込み中...

About Starlink 4141

Starlink 4141 (NORAD 53138) is a starlink constellation satellite (v1.5) launched Jul 17, 2022 by SPXS of US. It operates in LEO, CIRCULAR orbit with a mass of 297.00 kg.

次回通過

Passes for default location (London). Set your location on the main map for personalized predictions.

高度履歴

Loading altitude history...

軌道要素

1 53138U 22083G 26237.07743019 .00001809 00000-0 70076-4 0 9998
2 53138 53.1603 126.8485 0001145 83.7982 276.3149 15.31677962227563
Epoch: Aug 25, 2026 • Age: 17 hours

現在のステータス

高度 490.1 km
遠地点 / 近地点 N/A
速度 7.62 km/s
衛星直下点 -53.29°S, 136.98°E
打ち上げ日 Jul 17, 2022
運用期間 4.1 years
タイプ internet

技術仕様

分類 Payload
質量 297.00 kg
乾燥質量 275.00 kg
総質量 297.00 kg
長さ 0.20 m
直径 2.80 m
スパン 9.00 m
形状 Box + pan
製造者 SPXS
バスタイプ Starlink
フェーズステータス In Orbit
所有者/国 SPXS/US

Most Searched